Location: Newark
(41.5729°N, 14.7036°E)
Time: 05:28:24
(UTC+00:00)

Hubble Space Telescope - Visible Passes

Search period start: 15 September 2019 00:00
Search period end: 25 September 2019 00:00
Orbit: 536 x 540 km, 28.5° (Epoch: 14 September)

Date Brightness Start Highest point End Pass type
(mag) Time Alt. Az. Time Alt. Az. Time Alt. Az.
15 Sep 3.1 03:50:57 10° SSW 03:52:45 13° S 03:54:33 10° SSE visible
16 Sep 3.0 03:40:08 10° SSW 03:42:04 13° S 03:43:59 10° SSE visible
17 Sep 3.0 03:29:54 11° SSW 03:31:22 13° S 03:33:20 10° SSE visible
18 Sep 2.9 03:20:01 13° SSW 03:20:41 13° S 03:22:37 10° SSE visible
19 Sep 3.0 03:10:09 13° S 03:10:09 13° S 03:11:48 10° SSE visible
20 Sep 3.2 03:00:20 11° S 03:00:20 11° S 03:00:53 10° SSE visible
